Wind_Speed
15 12 8 6 4 1 2 2 3 4 6 8 10 11 13 13 12 10 9 9 10 12 12 13 14 14 15 16 16 15 15 15 13 13 13 12 11 10 10 10 11 11 12 12 13 13 13 12 11 11 10 10 9 9 9 9 9 9 8 8 7 7 7 6 6 6 6 6 6 6 7 8 8 9 9 8 8 8 8 7 7 6 6 6 4
18 15 12 9 6 2 0 2 2 2 5 8 10 11 12 13 11 10 9 9 11 12 12 13 14 15 15 16 16 16 15 15 14 13 13 11 11 10 10 10 10 10 11 12 12 12 12 11 10 10 9 9 9 10 9 9 9 9 9 8 7 7 7 7 6 6 6 6 6 6 7 7 8 8 8 8 7 6 6 6 5 5 6 5 4
20 17 15 12 8 4 2 2 1 1 3 8 11 12 13 13 12 11 10 11 12 12 13 15 16 17 18 18 18 17 15 15 15 14 12 11 10 9 8 8 7 7 7 6 7 7 7 7 7 8 9 10 10 11 10 9 9 9 9 8 8 8 8 7 6 6 7 7 7 7 6 6 6 6 7 7 6 5 5 5 5 6 5 5 4
21 19 17 14 10 6 4 3 2 1 3 8 11 12 13 12 11 11 12 12 13 13 15 17 19 20 19 18 18 17 16 15 14 13 12 10 9 7 7 6 5 4 3 2 2 2 2 3 4 6 8 10 11 11 11 10 10 10 10 10 9 9 8 8 8 8 8 8 8 8 7 6 5 5 6 6 6 5 5 5 5 6 5 5 6
20 21 18 14 10 8 6 5 3 2 4 8 10 12 13 13 12 12 13 13 14 15 17 19 20 19 18 17 16 16 14 13 13 12 11 9 7 6 6 5 4 3 2 2 1 1 1 1 3 4 6 8 9 10 11 12 12 12 12 12 11 10 9 9 10 9 9 9 8 8 7 7 7 6 6 6 6 6 6 6 6 6 6 6 7
21 22 19 14 12 10 8 6 4 3 6 9 12 14 15 13 12 13 13 12 14 15 17 19 19 18 16 15 14 13 12 12 12 11 10 8 7 6 5 4 3 3 3 2 2 1 0 1 2 3 4 5 6 8 9 9 11 12 13 13 12 11 10 10 11 10 9 9 9 9 8 8 8 7 6 6 6 7 6 6 6 6 6 6 7
23 23 19 15 13 12 9 7 5 5 8 11 14 16 15 13 12 13 13 12 13 15 17 18 17 16 16 14 14 13 12 12 11 10 9 9 8 7 5 4 4 4 3 3 3 2 1 0 1 2 3 3 4 5 6 6 7 9 12 13 13 12 11 11 11 10 9 9 9 9 9 8 8 8 8 8 7 8 8 7 7 7 6 6 6
24 24 19 16 15 13 9 7 7 7 10 14 15 15 14 13 12 13 13 13 14 15 18 18 17 16 15 14 15 16 14 12 10 10 10 9 8 7 5 4 4 3 3 3 3 3 2 2 2 2 3 3 4 4 5 5 5 6 8 11 12 12 12 11 11 10 10 9 9 10 10 9 9 9 9 9 8 8 8 8 8 7 6 6 6
25 24 20 18 16 12 10 9 9 10 13 16 16 15 14 13 13 13 14 14 15 16 19 19 17 16 15 14 16 17 14 11 10 11 10 9 8 6 5 4 3 2 3 3 3 3 3 3 3 3 3 3 4 4 4 4 4 4 5 7 10 12 13 13 12 12 10 10 10 10 10 9 9 9 8 9 8 8 8 8 8 7 7 6 5
24 24 22 20 15 12 11 11 12 13 15 17 17 15 14 14 14 14 15 16 16 17 19 19 17 16 16 16 17 16 14 12 11 11 9 8 8 6 5 4 2 2 2 3 3 3 3 2 2 2 2 2 3 4 3 3 3 3 3 4 7 9 12 13 14 14 12 11 10 10 9 9 9 9 9 9 9 8 8 8 8 7 7 6 6
24 25 23 19 15 13 13 13 14 15 17 18 17 15 14 15 15 15 16 17 18 19 19 19 17 17 18 18 18 17 14 12 12 10 8 8 8 7 5 4 2 1 2 3 4 4 4 3 2 2 2 2 3 3 3 3 2 1 1 3 5 7 9 10 11 13 13 12 12 10 9 9 9 9 9 9 9 8 8 8 8 7 6 5 5
25 25 22 18 16 15 15 16 17 17 17 17 16 15 15 16 16 16 17 18 19 20 19 19 19 19 19 20 20 18 15 14 13 10 9 10 10 8 6 4 2 0 2 5 6 6 6 5 4 3 3 2 3 3 2 2 1 1 1 2 3 5 7 8 8 10 11 12 13 12 11 10 10 9 8 7 7 7 7 6 7 7 6 4 4
28 25 21 18 17 17 17 17 17 17 18 16 15 15 15 16 16 16 17 19 20 21 20 20 20 21 20 21 21 19 17 16 14 11 11 12 12 10 7 5 3 2 3 6 7 7 8 7 6 5 4 3 3 2 2 1 1 1 1 2 3 4 5 7 8 8 9 11 12 13 12 12 11 9 7 6 5 5 5 5 5 5 4 3 2
26 21 19 19 19 18 18 18 16 17 17 16 15 15 15 16 17 17 19 20 21 21 22 22 22 22 21 21 21 20 19 18 15 12 13 14 12 10 8 6 4 3 3 5 7 8 8 8 8 7 7 5 3 2 1 2 2 2 2 3 4 4 5 6 8 8 9 9 10 10 11 11 10 8 7 6 6 5 4 4 4 2 2 1 1
16 16 18 20 20 19 19 17 16 17 17 16 16 15 15 16 18 18 19 20 21 21 22 23 23 22 20 20 21 21 20 21 19 16 16 16 14 12 11 9 6 5 4 5 6 8 8 8 9 8 8 6 3 1 2 2 2 2 3 4 5 5 6 7 8 8 9 9 10 9 9 9 8 8 7 7 6 6 6 6 5 3 2 2 2
15 16 18 21 22 21 18 16 16 18 18 17 16 15 15 17 20 20 20 20 21 21 22 23 22 21 20 20 21 21 20 22 23 21 20 20 18 16 14 11 10 8 5 5 6 8 9 10 10 9 7 5 3 2 2 2 3 3 4 4 5 6 6 7 7 8 8 9 9 9 9 9 8 8 7 7 5 5 5 6 5 3 3 3 3
17 18 20 22 23 22 19 16 16 18 18 18 17 16 17 20 23 22 21 20 20 20 22 22 22 20 19 19 20 20 19 21 23 24 23 22 20 17 16 14 12 11 7 6 7 8 10 10 10 9 7 5 3 3 3 3 4 5 5 5 6 6 7 7 7 8 8 8 8 8 7 7 7 6 6 5 5 5 5 5 4 3 3 3 3
17 20 22 21 22 22 19 16 16 17 17 17 17 16 17 20 21 21 21 20 19 19 21 22 22 20 18 18 18 19 20 21 22 23 24 23 20 17 16 15 14 12 10 10 10 9 10 11 10 9 6 5 5 4 4 5 6 6 7 7 7 8 8 8 7 7 6 6 6 6 6 5 5 4 4 4 4 4 5 4 4 4 3 3 3
19 21 21 18 19 21 19 16 17 17 16 16 16 17 18 19 19 19 20 20 20 20 21 21 21 20 19 18 18 20 22 23 23 23 23 22 20 18 17 16 16 14 13 12 11 10 10 10 10 9 7 6 6 5 5 5 6 6 7 7 8 8 9 9 8 7 6 6 6 6 6 5 5 4 4 4 4 4 4 4 4 5 5 4 4
21 20 20 18 19 21 19 17 18 18 18 18 18 20 22 22 20 18 16 18 21 22 23 22 21 20 20 20 21 21 22 24 25 25 25 24 22 20 19 17 17 15 14 10 8 9 10 10 10 10 9 8 6 5 5 5 5 6 7 7 7 7 8 8 8 7 6 6 6 6 6 6 5 5 5 5 4 4 4 4 5 6 6 6 5
22 21 20 20 20 20 18 16 18 21 21 20 21 23 25 24 19 15 15 19 21 22 24 24 22 22 21 21 21 22 23 24 26 26 26 25 24 22 20 19 18 16 13 10 8 9 10 10 10 10 9 8 8 7 6 5 5 6 6 6 6 6 6 6 7 7 6 5 5 5 6 7 7 7 6 6 6 5 4 5 6 6 7 6 6
25 23 20 18 16 15 15 16 19 22 22 21 22 24 25 21 18 17 19 21 21 21 23 25 24 23 22 21 21 22 23 25 26 26 26 26 25 23 21 19 17 15 13 11 9 9 10 11 10 10 9 8 8 8 7 6 5 5 5 5 5 4 4 4 5 5 5 5 4 4 4 5 5 5 5 5 6 6 6 6 6 6 6 6 6
27 22 15 11 9 9 11 14 18 23 25 23 21 22 22 20 19 21 21 21 21 22 23 24 25 24 23 23 22 23 23 25 25 25 25 26 25 22 21 19 17 16 14 11 9 9 10 11 11 10 10 9 8 7 6 5 4 3 3 3 2 2 2 2 2 2 3 3 3 2 2 2 2 2 2 2 3 4 6 7 7 7 7 6 6
22 17 10 6 6 7 9 11 17 25 28 26 22 21 21 20 19 19 18 19 22 24 25 25 25 24 24 24 24 24 25 25 25 25 25 25 24 23 22 20 19 17 15 12 11 13 12 13 12 11 10 9 8 7 5 4 3 2 2 2 2 2 3 3 3 3 3 2 3 2 2 2 2 2 2 2 3 3 3 4 5 6 7 6 6
13 11 9 8 9 11 11 10 14 20 23 25 23 20 18 18 18 18 20 21 24 26 26 26 25 26 26 25 25 26 27 27 26 25 25 26 26 25 23 21 21 19 17 15 14 14 13 14 12 11 11 9 8 6 5 5 4 4 3 3 4 4 5 5 5 5 5 6 6 6 6 6 6 6 6 6 6 7 7 7 6 7 7 8 8
10 11 11 12 13 14 14 13 15 18 19 20 20 18 17 18 20 21 23 24 27 28 27 26 27 27 28 28 28 29 29 29 28 27 27 28 28 27 25 24 23 21 20 18 15 14 14 14 12 12 12 10 9 7 6 6 5 5 5 6 6 7 7 7 7 7 7 8 8 8 9 9 9 10 9 10 10 10 11 11 11 11 10 10 10
11 11 11 12 13 14 15 16 16 18 18 18 18 18 18 20 22 23 25 26 29 29 27 28 29 29 29 30 31 30 29 30 30 29 28 29 30 29 28 28 26 24 24 22 17 15 17 16 14 14 12 11 10 8 7 6 6 7 7 8 9 10 10 10 9 9 9 10 9 9 10 11 11 12 12 12 12 12 13 14 14 14 14 13 13
10 10 9 10 12 12 13 13 11 13 14 15 16 17 19 21 24 24 24 26 28 26 25 28 31 30 30 31 30 29 29 31 32 32 33 33 33 32 31 31 31 29 26 21 15 17 19 18 16 15 13 12 10 9 8 7 8 8 9 9 10 11 12 12 12 12 11 11 12 11 11 11 12 13 13 14 14 14 14 14 15 16 16 16 15
11 10 9 9 10 9 10 10 10 12 13 13 15 18 20 22 22 20 19 19 20 18 19 23 26 27 28 28 28 28 29 30 30 31 34 34 34 35 34 34 35 32 26 19 16 17 18 19 18 16 15 13 11 11 10 10 10 11 11 11 11 11 13 13 13 13 13 12 12 12 12 12 13 14 14 15 16 16 16 15 16 17 17 18 17
11 10 9 10 9 7 7 8 9 10 11 12 14 16 18 19 18 16 15 15 14 12 13 16 18 20 22 22 22 22 23 25 27 28 29 30 33 36 36 36 35 31 25 20 18 17 17 18 19 18 16 15 14 13 13 13 14 14 14 13 12 12 12 13 14 14 14 14 14 14 14 14 15 16 17 18 18 19 18 18 17 18 19 19 19
9 9 8 8 8 7 8 8 7 7 9 11 12 13 15 15 14 12 12 12 12 11 11 13 15 16 17 18 19 17 15 18 22 23 23 25 29 32 32 32 32 29 25 22 21 20 19 19 20 20 18 16 16 16 16 16 17 17 17 16 15 14 14 14 15 16 16 17 16 16 16 16 17 18 19 20 21 21 22 21 19 19 19 19 20
10 9 9 9 9 9 8 9 9 8 8 9 10 11 11 10 9 8 9 10 11 11 11 13 15 17 17 16 17 16 13 13 15 17 17 19 23 25 25 25 25 24 24 24 25 24 22 20 22 22 19 17 17 18 18 19 19 19 19 19 18 18 17 17 17 17 18 18 18 18 18 18 19 19 20 20 21 22 23 23 21 20 19 19 19
13 11 9 9 10 10 10 11 10 10 10 9 8 9 9 8 7 6 7 8 9 11 11 12 14 16 15 13 13 15 14 12 14 15 15 16 18 21 22 22 23 23 24 25 26 26 23 21 23 23 20 19 20 21 21 21 21 21 21 21 21 21 20 20 19 19 20 20 20 20 21 21 21 22 22 22 22 22 23 23 22 20 19 19 19
14 13 11 10 11 11 10 11 10 10 10 9 7 7 7 6 6 6 7 7 8 9 10 11 12 12 12 12 13 15 15 15 16 16 14 14 15 18 20 22 23 23 24 25 26 25 23 23 23 23 22 23 24 24 24 24 24 24 23 23 23 23 23 22 22 22 22 22 22 23 23 23 23 23 23 23 23 23 22 23 22 21 20 20 20
14 13 11 10 11 11 11 11 10 10 10 9 8 8 8 7 7 7 7 7 8 9 9 11 11 11 11 12 13 15 15 15 15 16 15 15 16 18 21 22 23 24 25 25 25 24 24 25 24 23 23 24 25 26 27 28 27 25 25 24 24 24 24 24 24 24 24 24 24 24 24 24 24 24 25 25 24 24 22 22 22 21 21 21 22
14 12 11 10 9 9 10 11 11 10 10 11 10 9 8 7 7 7 7 7 8 10 10 11 12 13 13 12 13 14 15 14 14 16 17 17 19 20 22 24 25 27 27 26 26 26 27 26 25 25 25 25 27 28 29 29 27 26 25 25 25 24 25 25 25 24 24 24 23 23 23 24 24 25 25 25 25 25 23 22 21 22 22 22 23
13 11 10 10 10 9 10 12 13 13 13 12 12 11 9 8 7 7 8 8 9 10 11 12 13 13 14 13 13 14 15 15 16 17 18 19 21 22 23 24 26 27 27 27 28 29 28 27 26 26 27 27 28 29 29 27 26 26 26 26 25 25 25 25 24 24 24 23 23 23 23 24 24 25 26 26 26 25 23 22 21 22 23 23 24
7 6 6 7 7 8 10 11 12 13 13 14 14 13 11 10 9 9 9 9 10 11 11 12 13 13 13 13 13 14 15 16 17 17 19 20 21 22 23 24 25 25 26 28 29 29 28 29 30 30 30 29 29 30 29 27 26 27 27 27 26 26 25 25 25 25 25 24 24 24 24 24 24 25 26 27 26 25 23 22 21 22 23 24 25
4 4 3 2 1 4 6 9 11 12 14 16 16 16 14 13 13 12 11 11 12 12 13 13 14 13 13 13 15 16 16 17 16 15 15 18 19 20 21 23 24 24 25 26 27 27 27 30 33 31 28 29 30 30 29 29 28 28 28 28 27 27 26 25 26 26 26 25 25 24 24 25 26 27 27 27 26 24 23 23 23 24 25 26 27
4 4 3 4 3 2 3 4 6 7 9 12 16 18 18 17 18 17 15 15 15 15 16 16 14 13 13 13 15 18 19 18 17 16 16 18 20 20 20 21 23 22 23 23 24 24 25 27 29 26 23 25 28 28 28 28 28 28 28 27 27 27 27 27 27 27 27 26 26 25 25 26 26 26 26 25 25 25 25 25 25 26 26 28 29
3 4 4 5 5 5 6 6 5 4 4 6 9 12 13 14 16 17 17 17 15 12 13 14 11 10 10 10 11 15 17 17 16 17 18 19 19 18 18 20 21 20 20 21 21 22 24 25 26 26 24 25 26 27 27 27 27 27 27 28 28 28 28 29 30 30 29 28 27 27 27 26 26 26 26 26 26 27 27 27 27 28 29 30 30
5 5 6 7 7 8 9 8 6 5 6 6 7 9 9 9 10 11 12 13 11 8 8 10 9 9 10 10 9 10 12 13 14 15 15 14 13 14 15 18 20 21 21 21 21 21 22 23 24 25 25 25 25 26 27 28 28 28 29 29 30 30 31 32 32 31 31 30 30 29 28 28 27 27 28 28 29 29 30 30 30 31 32 32 32
7 7 7 8 9 9 10 9 8 7 8 8 9 9 9 9 9 10 10 11 10 9 9 10 11 12 12 11 10 10 11 13 14 15 15 14 14 15 17 18 21 21 21 20 21 21 21 22 23 24 24 24 25 25 26 28 29 30 31 32 32 32 33 33 33 33 33 33 33 33 32 31 30 30 31 32 32 32 32 33 33 34 34 34 34
8 8 8 9 9 10 10 10 9 9 9 9 9 9 9 9 9 10 11 12 12 11 11 12 13 14 14 13 13 13 14 15 16 17 18 18 18 19 20 20 21 22 22 22 22 23 23 24 24 24 25 26 27 28 29 30 30 31 32 33 34 35 35 35 34 34 34 34 35 35 35 34 34 34 34 34 34 34 34 35 35 35 35 35 35
7 8 8 9 9 9 10 10 10 10 11 11 11 11 11 11 11 11 12 13 13 14 14 15 16 17 18 18 18 19 19 20 21 21 22 22 23 23 24 24 25 26 26 26 27 28 29 30 30 29 29 30 31 31 32 32 33 33 34 35 36 37 37 37 36 36 36 37 37 38 38 37 37 37 37 37 36 35 35 35 36 35 35 35 35
8 8 9 9 9 10 10 11 11 12 12 13 14 14 14 14 14 14 15 15 16 16 17 18 19 20 21 22 22 23 23 24 24 25 25 26 26 27 27 28 29 30 31 31 32 34 35 35 36 36 34 32 32 34 36 37 37 37 38 39 40 40 40 41 40 41 41 41 41 39 38 38 38 38 39 39 37 37 37 37 37 35 34 33 33
10 10 11 11 11 11 11 12 12 13 14 15 15 16 17 17 18 18 19 19 20 20 21 21 22 23 24 24 25 25 26 26 27 27 28 28 29 30 30 31 32 33 34 34 35 36 36 36 37 37 36 36 37 39 41 42 41 39 39 40 41 42 43 42 43 43 43 43 44 44 43 41 40 40 42 41 39 39 40 40 39 37 35 34 34
8 9 10 11 12 12 13 13 14 15 16 17 17 18 19 20 20 21 22 22 23 23 24 24 25 26 27 27 28 28 29 30 30 31 31 31 31 32 32 33 34 35 35 36 37 38 39 39 40 41 41 41 43 43 44 44 44 43 42 42 42 42 41 40 41 42 40 39 40 42 42 43 43 43 44 44 42 41 40 40 40 40 39 37 36
9 10 12 13 13 14 15 15 16 17 18 19 19 20 21 22 23 24 24 25 25 26 26 27 28 28 29 30 31 31 32 33 34 34 34 34 34 34 35 35 36 37 37 38 38 38 39 41 42 43 43 44 43 43 44 45 46 46 46 46 46 46 46 45 45 45 44 43 41 39 39 39 41 43 46 48 46 43 41 40 40 41 42 42 41
12 13 13 14 14 15 16 17 17 18 19 19 20 21 22 23 24 25 25 26 27 27 28 29 29 30 30 31 32 32 32 33 33 34 34 35 35 35 35 35 35 36 36 36 36 35 36 37 38 39 40 41 42 42 42 43 44 45 46 47 48 49 50 51 51 50 50 49 45 41 38 37 36 38 42 45 45 42 39 38 40 41 43 44 44
14 14 14 15 16 17 17 18 19 19 20 20 20 21 21 22 22 23 23 24 24 25 25 26 27 28 28 28 28 28 27 27 27 27 27 27 28 28 28 27 27 28 29 30 31 32 32 33 34 35 36 38 39 41 42 42 43 44 45 46 46 47 48 50 51 51 50 48 44 41 39 38 37 37 37 37 38 38 37 37 40 41 43 46 47
Wind_Direction
231 228 222 219 198 129 51 103 137 182 193 199 206 211 214 211 212 212 205 203 197 191 189 188 188 184 180 179 179 184 188 191 197 199 199 205 211 217 228 236 242 249 254 258 259 257 253 250 249 248 246 246 248 251 250 250 252 254 252 252 253 253 254 255 256 257 251 250 258 266 269 265 262 261 265 271 274 274 276 282 292 297 298 302 303
230 225 224 228 211 185 165 121 128 195 196 197 203 207 207 207 208 203 196 193 185 180 180 181 179 174 172 175 181 187 189 192 196 196 200 208 216 223 231 239 247 254 258 260 258 254 249 244 242 243 243 244 246 247 245 244 246 248 248 248 249 251 251 252 251 252 251 253 260 266 268 263 258 258 262 268 275 275 270 271 280 286 295 303 288
231 224 223 225 213 203 219 190 154 226 213 200 201 204 203 201 203 197 187 183 182 178 175 175 176 175 176 180 184 187 189 192 196 197 202 209 216 223 229 236 243 248 250 249 245 241 240 240 241 244 245 243 243 243 240 239 239 241 243 241 242 247 251 251 248 246 248 252 255 258 260 258 256 260 262 263 268 272 268 270 280 285 291 295 283
233 226 223 223 216 213 225 229 219 243 229 206 204 210 206 199 199 194 184 183 185 182 176 175 180 183 183 185 186 188 191 193 197 201 204 206 210 217 222 223 218 209 201 193 211 233 246 255 256 253 250 246 244 244 244 241 238 238 239 238 235 239 247 249 246 242 242 249 254 254 253 250 250 256 257 255 260 269 274 276 276 277 279 281 283
233 228 226 224 222 221 228 232 231 240 219 205 207 210 205 199 198 194 186 186 187 185 182 180 184 188 188 189 191 192 193 195 199 202 202 201 203 209 207 194 172 144 110 87 77 42 328 285 265 256 250 246 244 244 244 242 240 238 240 241 237 238 244 247 246 239 234 239 247 250 251 249 246 245 246 251 260 267 273 278 277 274 273 275 282
227 225 226 226 224 226 233 234 236 239 211 202 204 203 202 199 198 195 191 191 190 187 187 185 185 187 188 191 194 195 195 195 196 195 196 197 194 191 177 150 120 90 74 71 74 74 53 279 264 261 257 253 251 249 249 248 245 242 241 241 240 240 242 243 243 236 229 231 237 239 242 244 245 242 244 251 261 266 272 278 282 281 279 279 282
221 221 222 223 228 230 235 237 237 228 205 201 204 203 203 201 199 198 196 197 195 190 190 187 183 182 184 187 191 192 192 191 190 187 189 191 181 168 149 119 96 80 68 59 57 61 61 6 296 295 295 288 282 277 274 268 258 250 244 241 239 238 237 236 237 235 230 230 232 231 232 237 240 241 246 257 265 272 275 272 271 273 276 276 276
218 219 220 222 228 232 235 236 229 216 202 202 206 206 206 204 202 202 200 201 197 192 191 186 180 181 182 183 187 189 188 185 183 182 186 184 170 154 134 112 96 79 56 41 36 38 36 25 11 352 338 325 313 302 294 284 267 253 244 240 237 233 231 229 232 234 233 233 233 232 233 235 239 243 250 258 266 275 277 272 268 266 270 276 279
215 216 219 222 226 231 234 230 222 211 202 203 207 209 210 207 204 202 201 202 197 193 191 185 181 181 179 179 182 184 184 179 177 183 183 173 162 151 136 120 99 74 49 26 9 13 18 19 15 2 349 328 309 301 295 287 270 252 236 229 228 227 227 225 226 229 231 233 232 233 236 234 234 242 250 258 265 271 275 277 280 278 279 285 289
213 214 217 221 224 231 233 224 218 211 204 205 207 211 213 209 204 201 200 201 197 193 191 187 185 183 181 178 178 179 180 175 176 180 176 166 164 158 148 143 130 91 37 360 345 348 355 3 3 349 343 315 296 297 297 293 287 270 239 220 215 215 219 221 222 222 223 226 227 226 231 232 230 234 243 255 262 266 270 275 279 281 285 292 293
210 213 216 219 224 231 229 220 217 215 210 210 211 213 216 210 204 201 198 198 196 192 191 190 187 185 184 181 177 178 176 170 169 170 172 178 175 168 163 163 154 102 9 338 325 323 321 320 320 323 328 309 296 299 302 304 302 287 237 215 205 201 205 212 217 218 217 218 221 220 222 228 232 237 245 253 258 261 265 269 273 277 279 284 288
207 210 214 221 229 230 225 221 220 220 218 217 216 216 215 209 203 200 197 196 195 192 190 190 188 188 187 181 178 178 174 168 167 170 183 188 181 176 173 172 184 274 342 327 315 307 304 301 299 304 301 289 288 291 290 285 271 245 199 191 190 191 198 207 209 211 212 214 218 219 218 222 228 235 245 250 259 263 262 265 270 269 260 256 271
200 202 209 220 231 228 223 225 225 223 222 221 220 217 213 208 203 198 195 194 194 192 189 189 189 190 187 180 178 181 178 173 171 175 185 187 181 180 181 187 217 271 325 326 316 302 295 295 295 295 289 282 279 272 261 242 226 200 176 166 168 181 194 205 206 203 205 210 216 219 219 221 222 227 233 236 243 247 246 252 255 253 249 242 255
194 196 209 221 227 222 219 227 229 224 223 221 219 217 213 208 201 197 193 192 193 193 190 189 191 190 186 182 182 185 184 182 182 186 190 191 191 194 199 204 223 266 298 311 311 299 289 286 285 285 285 285 280 256 221 204 197 176 160 149 149 160 176 191 200 200 198 199 204 207 213 219 221 223 222 212 207 206 206 216 211 196 211 228 252
190 199 216 224 225 219 220 228 228 222 219 215 215 216 214 208 200 197 194 190 193 194 191 190 191 190 186 185 186 186 188 188 192 197 198 201 207 213 214 214 227 253 270 287 292 286 279 271 268 269 273 276 267 223 193 188 177 160 151 145 145 150 155 167 179 187 191 192 196 200 208 215 214 210 202 192 194 196 188 192 193 188 204 229 256
194 211 222 227 225 221 224 229 224 218 214 210 211 215 213 206 200 197 192 190 192 193 191 190 189 190 190 190 189 188 191 193 194 198 201 204 209 214 218 224 242 253 252 269 277 274 269 263 260 259 259 262 251 200 179 176 162 152 147 143 142 140 139 144 152 164 178 188 194 198 201 203 199 196 193 185 190 203 199 199 207 220 236 259 274
205 221 226 226 225 226 229 230 221 214 213 210 209 211 212 210 204 195 186 187 190 190 189 187 187 189 191 194 193 193 198 199 197 198 201 203 207 213 220 231 249 255 251 254 264 271 272 267 264 261 253 249 239 203 178 164 149 142 139 134 131 129 129 134 142 153 166 177 185 188 189 192 191 188 186 181 188 211 217 215 223 236 249 275 288
219 228 227 224 225 230 233 231 222 215 217 216 211 209 212 217 212 195 182 183 187 188 189 187 187 189 191 194 197 201 206 205 203 202 203 205 212 219 226 237 251 259 264 264 256 263 274 273 269 262 247 234 223 201 174 156 146 139 135 129 126 123 123 127 133 141 153 165 172 174 173 176 175 166 165 170 185 207 210 206 222 236 243 259 279
228 232 233 227 225 232 236 230 219 216 220 219 215 212 211 218 217 201 187 184 185 189 193 192 193 195 197 200 205 209 210 210 209 208 208 212 218 223 229 241 251 257 268 267 253 255 270 272 266 255 236 217 205 188 165 150 142 134 126 118 114 112 112 113 115 120 130 142 150 150 149 149 144 136 141 158 172 186 187 196 223 237 243 253 265
233 233 236 237 233 232 232 228 218 214 217 214 212 211 209 213 213 202 193 190 190 193 196 198 201 203 205 205 208 212 212 211 211 211 211 214 219 224 231 241 246 253 263 258 246 259 268 263 254 241 221 201 182 166 155 147 139 129 118 108 101 98 100 101 101 104 111 117 123 125 125 125 123 122 131 142 151 161 175 198 226 241 253 261 261
237 234 241 249 244 228 216 216 217 216 218 214 211 211 210 211 208 198 194 196 197 198 198 199 204 206 208 209 210 213 214 213 213 212 213 216 221 227 233 239 243 251 252 238 244 268 266 253 244 231 212 189 167 157 155 151 143 134 120 109 102 98 99 104 103 102 102 101 101 106 112 115 116 120 127 134 139 147 168 198 221 237 247 252 252
235 236 249 258 247 220 200 200 209 215 219 219 216 215 213 210 205 203 203 199 200 204 203 201 203 206 209 211 212 214 215 216 216 214 215 219 224 229 233 236 241 244 240 233 251 269 257 244 239 227 212 193 172 164 159 154 147 139 128 121 119 115 116 121 122 121 120 113 104 98 101 106 109 116 122 130 140 146 156 173 191 207 214 222 227
240 242 256 258 228 206 200 199 205 212 217 220 221 222 217 208 204 208 209 203 202 209 210 205 205 207 209 211 214 216 218 219 217 217 217 220 226 230 231 233 233 231 229 231 250 266 252 239 236 229 221 209 189 174 162 156 154 149 148 151 156 158 158 157 155 156 153 149 148 146 142 136 123 121 127 135 153 158 160 164 170 180 189 200 212
249 251 259 247 217 218 218 208 207 210 212 214 219 224 218 207 205 211 213 209 209 215 216 212 209 210 211 213 214 217 219 219 220 220 222 224 228 229 228 227 223 219 220 228 254 269 253 232 228 227 222 216 201 180 163 166 176 182 201 226 250 267 269 262 261 263 259 251 241 235 231 235 243 246 249 250 248 242 225 200 187 188 194 202 213
247 247 243 239 236 236 233 221 213 212 213 213 215 220 217 209 208 212 213 213 214 217 218 216 214 213 215 216 218 220 220 219 221 223 224 226 228 228 226 222 218 216 221 234 260 268 242 219 219 222 218 214 206 190 182 189 203 219 237 254 268 280 286 285 285 285 285 285 281 279 277 275 273 271 269 268 266 264 262 256 245 233 226 222 224
236 243 244 246 246 243 240 228 212 208 213 211 208 211 215 215 214 216 218 218 218 218 217 217 218 219 219 219 220 222 222 221 222 224 225 225 226 227 224 222 221 221 227 243 260 251 221 207 213 218 216 214 210 206 207 212 227 242 253 263 269 272 275 276 279 283 283 283 281 279 279 279 278 278 276 275 273 269 266 263 261 258 253 248 244
238 251 254 255 254 245 233 222 207 202 205 205 202 203 209 218 223 224 226 227 227 224 218 217 222 223 222 223 223 222 222 224 223 223 224 224 225 227 224 221 222 227 238 252 257 237 215 205 210 214 213 213 214 217 222 228 241 250 258 267 272 272 269 265 269 274 275 276 275 272 271 269 270 272 273 274 273 270 266 263 261 261 261 259 256
238 250 256 258 252 231 208 200 194 195 202 204 203 203 209 220 228 229 229 232 235 234 226 223 226 225 223 224 226 226 225 226 223 222 221 219 220 223 222 221 224 232 247 255 244 230 219 207 206 209 210 214 219 225 232 240 251 256 261 268 272 270 264 259 260 265 268 270 271 269 267 265 265 268 272 274 275 273 269 264 260 259 259 258 257
225 226 236 241 236 213 187 186 191 194 200 205 208 214 219 226 231 230 229 234 238 236 231 228 231 233 232 229 230 232 233 231 228 227 227 222 219 219 222 224 228 237 249 244 227 230 225 211 207 207 210 217 224 231 239 247 255 261 264 267 270 268 262 256 256 259 261 262 263 265 266 267 269 273 277 278 278 276 274 270 265 261 259 258 256
216 205 212 224 224 209 191 192 198 202 206 209 214 220 225 228 229 225 222 227 230 227 224 224 227 235 238 233 231 235 240 240 238 238 238 233 227 227 230 231 233 241 245 231 220 227 227 223 221 214 211 219 227 235 243 248 254 259 261 264 266 263 259 257 257 259 258 258 259 260 263 266 271 275 279 281 281 279 276 272 268 264 261 259 256
222 203 203 213 212 206 204 201 198 204 214 218 218 220 223 225 225 218 209 212 216 212 209 211 213 222 231 229 223 223 229 232 231 233 237 232 227 229 234 234 235 238 234 220 215 223 232 241 237 224 217 220 227 236 241 245 251 255 258 262 262 258 256 256 258 258 256 258 259 261 264 269 271 273 275 279 281 281 279 276 272 266 261 259 256
225 210 204 205 198 191 198 206 206 211 224 229 224 218 215 215 214 206 194 193 197 197 201 204 204 212 225 229 221 215 216 216 213 217 222 217 213 216 220 223 224 223 219 215 219 230 243 246 235 227 226 228 233 241 245 248 252 255 258 262 261 259 256 256 258 258 257 259 262 265 270 272 272 270 271 274 277 278 277 275 273 267 259 256 254
226 225 216 206 199 192 194 203 210 217 226 232 230 222 215 208 205 201 192 189 188 189 196 202 202 205 212 216 212 210 212 210 206 209 210 202 200 203 203 204 207 210 214 219 226 238 247 240 227 228 235 238 241 247 249 252 255 257 259 261 261 260 258 257 261 262 262 263 265 268 269 270 269 268 269 271 272 272 271 269 268 264 256 252 252
237 242 234 213 202 199 199 203 209 215 218 220 226 231 229 219 211 204 197 194 191 189 194 202 205 204 204 206 206 208 214 213 204 203 202 194 195 200 202 204 208 213 218 224 234 243 241 230 226 233 240 244 247 251 252 254 254 255 259 261 261 261 259 260 263 265 266 266 267 268 268 267 268 268 267 268 268 266 265 264 263 260 254 251 253
240 246 244 227 210 203 202 203 209 213 213 212 215 225 234 232 224 216 210 205 201 200 202 207 213 216 216 217 215 215 222 222 207 202 205 204 202 208 212 214 217 220 224 231 240 242 233 227 230 236 241 247 252 253 254 255 256 257 260 261 262 262 261 261 264 267 269 268 267 267 265 265 265 265 265 265 263 262 261 260 259 256 250 249 252
228 240 245 244 233 216 205 206 214 219 220 219 218 220 226 229 224 219 220 222 217 214 214 215 219 225 228 230 227 223 227 228 218 214 217 218 219 222 223 223 223 224 228 234 238 236 231 231 234 237 241 247 250 252 255 256 258 260 261 262 262 261 261 263 266 268 268 267 266 264 263 263 263 263 262 261 260 259 258 257 256 254 250 250 252
212 227 236 244 247 236 222 218 221 222 224 226 227 227 227 230 231 227 225 227 226 223 222 222 222 226 230 233 234 230 228 226 225 225 224 223 226 230 230 231 231 230 231 234 234 233 233 236 237 239 242 245 247 251 255 256 254 254 256 258 259 260 262 264 266 266 265 264 263 263 263 263 262 261 260 259 258 257 255 253 252 251 252 253 255
194 212 226 240 253 257 252 246 239 234 232 233 233 233 232 229 228 231 235 237 233 225 221 222 221 224 230 236 240 240 234 230 231 232 229 227 230 233 235 238 240 238 237 237 237 236 237 238 238 237 238 241 246 250 253 252 249 248 252 254 256 258 260 262 263 263 262 262 263 263 263 262 260 259 258 257 257 256 256 254 252 251 252 254 256
153 154 143 142 241 265 266 265 263 259 256 253 247 242 238 234 230 232 239 243 237 224 217 219 220 221 227 235 239 241 239 238 241 240 233 230 231 233 235 239 240 240 241 244 246 246 244 241 240 241 239 240 245 250 253 252 249 248 250 252 254 255 256 257 259 259 260 261 261 261 261 260 258 258 257 257 258 259 260 258 256 254 254 255 256
165 159 138 130 145 197 225 235 244 248 251 252 244 235 232 232 234 238 240 243 243 234 222 220 219 220 227 237 243 242 236 233 238 240 232 228 227 227 230 235 239 240 243 246 248 248 246 245 247 250 249 245 246 248 249 250 250 250 250 251 253 254 254 253 253 254 255 257 257 257 257 256 256 256 256 257 258 260 262 262 260 259 258 258 258
191 184 177 168 162 167 173 171 178 197 218 234 230 222 219 221 228 232 231 231 239 236 217 209 208 213 224 237 248 244 234 230 237 241 236 230 226 225 229 238 245 247 248 250 250 248 249 250 252 255 254 252 251 252 251 252 252 253 253 254 254 254 253 252 252 252 253 253 253 252 252 253 254 255 255 256 256 258 260 262 262 261 260 260 261
190 184 188 189 181 178 181 186 206 235 243 239 228 221 220 222 228 231 225 222 227 223 204 204 212 225 234 241 248 245 241 244 250 251 250 247 243 241 243 247 253 255 255 256 256 254 252 251 252 255 257 257 257 257 256 256 256 257 257 257 256 255 254 253 254 254 254 254 253 252 251 252 254 255 255 256 256 257 259 261 261 261 261 262 263
191 191 197 203 206 207 208 214 224 228 226 229 229 230 231 231 231 233 233 235 238 236 227 226 233 240 242 244 247 249 251 255 258 260 262 263 259 256 255 255 257 260 260 260 260 260 258 257 257 260 262 262 262 261 261 261 261 262 262 261 259 258 256 256 255 256 256 255 255 254 253 253 254 254 255 256 256 257 258 260 261 261 261 262 262
188 193 196 202 210 217 220 224 225 219 215 217 222 226 232 236 235 234 236 241 244 244 243 241 243 246 246 246 250 254 255 255 258 260 262 263 262 261 260 259 259 260 259 257 256 257 258 259 261 263 264 265 264 263 262 262 263 265 266 265 263 261 259 258 258 258 258 258 257 257 256 255 254 254 254 254 255 256 258 259 260 260 260 259 259
192 197 199 202 207 212 217 224 227 227 225 223 224 226 231 236 240 242 245 247 249 250 249 247 246 246 248 250 254 256 256 255 255 256 257 259 260 260 260 260 260 261 261 261 261 262 263 264 264 263 263 264 265 266 267 267 267 267 266 264 263 262 260 258 258 259 259 259 258 257 257 256 256 255 254 254 253 253 254 255 257 258 258 258 258
210 215 216 217 218 219 223 228 230 232 234 235 235 236 238 240 243 246 250 252 253 254 254 254 254 252 252 253 254 255 256 256 256 257 258 258 259 259 260 260 261 262 263 264 265 267 269 269 268 265 262 262 266 271 273 272 271 269 266 264 263 262 261 260 260 260 260 259 257 257 256 256 257 257 256 253 252 252 252 253 253 255 256 258 259
223 224 226 229 231 232 235 238 240 243 244 244 245 245 245 247 247 247 249 252 253 253 254 256 258 259 259 260 260 260 261 261 261 261 261 261 261 260 261 261 262 263 264 265 266 267 268 269 268 267 266 267 270 274 274 272 271 270 268 266 264 262 261 261 261 261 261 260 258 256 254 253 253 254 254 253 252 253 253 253 253 253 254 255 256
239 236 237 239 241 243 246 248 250 252 252 253 253 253 253 253 253 252 252 253 253 254 255 256 257 259 261 262 263 265 265 267 268 268 267 267 267 267 266 266 267 267 268 268 268 269 270 270 270 270 271 272 273 274 274 273 272 272 271 270 268 266 266 266 264 264 264 264 262 259 255 252 251 253 254 253 253 254 254 252 251 250 249 248 248
252 250 251 252 253 255 256 257 257 257 257 257 256 255 255 255 256 256 257 257 258 258 260 261 262 263 264 264 265 266 267 268 270 272 273 273 274 275 276 276 276 276 276 276 275 274 274 275 275 276 276 276 275 275 274 273 273 273 272 271 270 270 271 271 271 271 271 272 272 271 268 261 255 254 254 252 251 252 253 252 251 250 248 245 242
257 259 261 262 262 262 261 262 262 261 261 261 260 259 258 258 257 258 258 259 260 261 262 263 265 266 266 267 267 268 269 270 272 273 275 276 276 277 278 279 280 280 279 279 279 278 277 277 278 278 279 278 278 276 275 274 273 272 272 271 271 270 271 272 273 273 274 274 275 275 272 268 265 265 262 255 251 252 256 257 257 256 254 250 245
264 267 268 268 268 268 268 268 268 268 267 266 265 264 263 262 261 261 260 261 261 262 262 263 264 265 266 267 269 270 271 271 272 272 273 274 275 275 275 275 275 276 277 278 279 279 279 278 278 278 278 279 278 278 277 275 274 272 271 270 270 269 270 269 270 270 271 271 271 271 271 272 273 274 271 266 263 265 266 263 261 261 260 257 251
Height
3113 3113 3114 3115 3115 3115 3115 3115 3116 3117 3118 3119 3120 3121 3122 3123 3124 3124 3125 3126 3127 3127 3128 3128 3128 3129 3130 3132 3133 3135 3136 3138 3139 3140 3141 3142 3143 3145 3146 3147 3147 3148 3149 3150 3150 3151 3151 3152 3153 3153 3154 3155 3156 3157 3158 3158 3158 3159 3160 3161 3161 3161 3162 3162 3163 3164 3165 3166 3166 3167 3167 3168 3169 3169 3170 3170 3170 3171 3171 3171 3172 3172 3172 3172 3172
3111 3112 3113 3113 3114 3114 3115 3115 3115 3116 3117 3118 3119 3120 3122 3122 3123 3124 3125 3126 3126 3127 3127 3127 3128 3129 3131 3132 3133 3134 3136 3137 3138 3140 3141 3142 3143 3144 3145 3146 3147 3147 3148 3148 3149 3150 3150 3151 3151 3152 3153 3154 3155 3156 3157 3157 3158 3158 3159 3159 3160 3160 3161 3162 3162 3163 3164 3165 3166 3166 3167 3168 3168 3169 3169 3170 3170 3170 3171 3171 3171 3172 3172 3172 3172
3109 3111 3112 3112 3113 3114 3114 3115 3115 3115 3116 3117 3118 3120 3121 3121 3122 3123 3124 3125 3126 3126 3127 3127 3128 3129 3130 3131 3132 3134 3135 3137 3138 3139 3141 3142 3143 3144 3145 3145 3146 3147 3147 3148 3148 3149 3149 3150 3150 3151 3152 3153 3154 3155 3156 3157 3157 3157 3157 3158 3159 3160 3160 3161 3162 3162 3163 3164 3165 3166 3166 3167 3168 3168 3168 3169 3169 3170 3170 3171 3171 3171 3172 3172 3172
3107 3109 3110 3111 3112 3113 3113 3114 3114 3114 3115 3116 3117 3119 3120 3121 3122 3123 3123 3124 3125 3126 3126 3127 3127 3128 3129 3130 3132 3133 3135 3136 3138 3139 3140 3142 3142 3143 3144 3145 3146 3146 3147 3147 3147 3148 3148 3149 3149 3150 3151 3152 3152 3153 3154 3155 3156 3156 3156 3157 3158 3158 3159 3159 3160 3162 3163 3163 3164 3165 3166 3167 3167 3167 3168 3168 3169 3169 3170 3170 3171 3171 3171 3172 3172
3106 3108 3109 3110 3111 3111 3112 3112 3112 3113 3114 3115 3116 3118 3119 3120 3121 3122 3122 3123 3124 3125 3126 3126 3127 3128 3129 3131 3132 3133 3135 3136 3138 3139 3140 3141 3142 3143 3144 3145 3146 3146 3146 3147 3147 3147 3148 3148 3149 3150 3150 3151 3151 3152 3153 3154 3154 3155 3155 3155 3156 3157 3158 3158 3159 3161 3162 3163 3164 3165 3166 3166 3166 3167 3167 3167 3168 3169 3169 3170 3170 3171 3171 3171 3171
3104 3106 3107 3108 3109 3110 3110 3111 3111 3112 3113 3114 3115 3116 3118 3119 3120 3121 3122 3122 3123 3124 3125 3126 3127 3128 3130 3131 3132 3134 3135 3137 3138 3139 3140 3141 3142 3143 3144 3145 3145 3146 3146 3147 3147 3147 3147 3148 3148 3149 3149 3150 3150 3150 3151 3152 3153 3154 3154 3154 3155 3156 3157 3158 3158 3160 3161 3162 3163 3164 3165 3165 3166 3166 3166 3167 3167 3168 3168 3169 3170 3170 3171 3171 3171
3101 3104 3105 3107 3108 3108 3109 3110 3110 3111 3112 3112 3113 3115 3117 3118 3119 3120 3121 3122 3123 3124 3125 3126 3127 3128 3129 3131 3132 3134 3135 3136 3138 3139 3140 3141 3142 3143 3144 3145 3145 3146 3146 3147 3147 3147 3147 3148 3148 3148 3149 3149 3149 3149 3149 3150 3151 3152 3153 3153 3154 3155 3156 3157 3158 3159 3160 3161 3162 3163 3164 3164 3165 3165 3166 3166 3167 3167 3168 3169 3169 3170 3170 3170 3170
3100 3102 3104 3105 3106 3107 3108 3108 3109 3110 3111 3112 3113 3114 3116 3117 3118 3119 3120 3121 3122 3123 3125 3126 3127 3128 3130 3131 3132 3133 3134 3136 3137 3139 3140 3141 3142 3143 3144 3144 3145 3146 3146 3147 3147 3147 3147 3147 3147 3147 3147 3147 3148 3148 3148 3149 3150 3151 3151 3152 3153 3154 3155 3156 3157 3158 3159 3160 3161 3162 3163 3163 3164 3165 3165 3166 3166 3167 3168 3168 3168 3169 3169 3170 3170
3098 3100 3102 3103 3105 3106 3106 3107 3108 3109 3110 3111 3112 3114 3115 3116 3117 3118 3119 3120 3122 3123 3124 3126 3127 3128 3130 3131 3132 3133 3134 3136 3137 3139 3140 3141 3142 3143 3144 3144 3145 3146 3146 3146 3147 3147 3147 3147 3147 3147 3147 3147 3147 3148 3148 3149 3149 3150 3151 3151 3152 3153 3154 3155 3156 3157 3158 3159 3160 3161 3162 3162 3163 3164 3164 3165 3166 3167 3167 3167 3168 3168 3168 3169 3169
3096 3098 3100 3102 3103 3104 3105 3106 3106 3107 3109 3110 3111 3113 3114 3115 3116 3117 3119 3120 3121 3123 3124 3126 3127 3129 3130 3131 3132 3133 3135 3136 3138 3139 3140 3141 3142 3143 3144 3144 3145 3146 3146 3146 3146 3146 3146 3147 3147 3147 3147 3147 3147 3148 3148 3148 3149 3150 3150 3151 3152 3152 3153 3154 3155 3156 3157 3159 3159 3160 3161 3162 3162 3163 3163 3164 3165 3166 3166 3167 3167 3167 3167 3168 3168
3094 3096 3098 3100 3102 3103 3104 3104 3105 3106 3107 3109 3110 3112 3114 3115 3115 3117 3118 3119 3121 3123 3124 3126 3127 3128 3129 3130 3132 3133 3135 3136 3138 3138 3140 3141 3142 3143 3144 3144 3145 3146 3146 3146 3146 3146 3146 3146 3146 3147 3147 3147 3147 3147 3148 3148 3149 3149 3150 3150 3151 3151 3152 3152 3153 3155 3156 3157 3158 3159 3160 3161 3162 3162 3163 3164 3164 3165 3165 3166 3166 3166 3167 3167 3167
3093 3095 3097 3099 3101 3102 3102 3103 3103 3105 3106 3108 3110 3111 3113 3114 3115 3116 3118 3119 3121 3122 3124 3125 3127 3128 3129 3130 3131 3133 3134 3136 3137 3138 3139 3141 3142 3143 3144 3144 3145 3146 3146 3146 3146 3146 3146 3146 3146 3147 3147 3147 3147 3147 3147 3148 3148 3149 3149 3149 3150 3150 3151 3152 3153 3154 3155 3156 3157 3158 3159 3160 3161 3162 3163 3164 3164 3165 3165 3165 3165 3166 3166 3166 3167
3088 3092 3095 3097 3099 3100 3101 3102 3103 3104 3105 3107 3109 3110 3112 3113 3114 3115 3117 3119 3120 3122 3123 3125 3126 3127 3128 3129 3131 3132 3134 3135 3137 3138 3140 3141 3143 3143 3144 3145 3145 3146 3146 3146 3146 3146 3146 3147 3147 3147 3147 3147 3147 3147 3147 3147 3147 3148 3148 3149 3149 3150 3150 3151 3152 3153 3154 3155 3156 3157 3158 3159 3160 3161 3163 3163 3164 3164 3165 3165 3165 3165 3166 3166 3166
3087 3091 3094 3095 3097 3099 3100 3100 3102 3103 3105 3106 3108 3109 3111 3112 3113 3114 3116 3118 3119 3121 3123 3124 3125 3126 3128 3130 3131 3132 3134 3135 3137 3138 3140 3142 3143 3143 3144 3145 3145 3146 3146 3147 3147 3147 3147 3147 3147 3147 3147 3147 3147 3147 3147 3147 3147 3147 3148 3148 3149 3150 3150 3151 3151 3152 3153 3154 3156 3157 3158 3158 3160 3161 3162 3163 3164 3164 3164 3164 3165 3165 3165 3166 3166
3091 3093 3093 3094 3096 3097 3098 3099 3101 3102 3104 3105 3106 3108 3109 3110 3111 3112 3114 3117 3119 3121 3122 3124 3125 3127 3128 3130 3131 3132 3134 3135 3137 3138 3140 3141 3142 3143 3144 3144 3145 3146 3146 3147 3148 3148 3147 3147 3147 3147 3147 3147 3147 3147 3147 3147 3147 3147 3148 3148 3149 3150 3150 3151 3151 3152 3153 3154 3155 3156 3158 3158 3159 3161 3161 3162 3163 3163 3163 3164 3164 3164 3165 3165 3165
3091 3091 3092 3093 3094 3095 3096 3097 3099 3101 3102 3103 3104 3106 3107 3108 3108 3109 3112 3115 3118 3120 3122 3124 3126 3127 3129 3130 3131 3132 3133 3134 3136 3137 3138 3140 3141 3142 3143 3144 3145 3146 3146 3147 3148 3148 3147 3147 3147 3147 3147 3147 3147 3147 3147 3147 3147 3148 3148 3149 3150 3150 3151 3151 3152 3153 3153 3154 3155 3156 3157 3158 3159 3160 3161 3162 3162 3163 3163 3163 3163 3164 3164 3164 3165
3088 3089 3090 3091 3092 3093 3094 3096 3098 3100 3101 3102 3103 3104 3105 3105 3105 3106 3109 3114 3117 3119 3122 3124 3126 3127 3128 3129 3131 3132 3133 3134 3135 3136 3137 3139 3140 3141 3143 3144 3144 3145 3146 3146 3147 3147 3147 3146 3146 3146 3146 3146 3146 3147 3147 3148 3148 3148 3149 3150 3150 3151 3151 3152 3153 3153 3154 3155 3155 3156 3157 3158 3159 3160 3161 3161 3162 3162 3162 3162 3163 3163 3164 3164 3164
3086 3087 3087 3089 3091 3092 3093 3095 3097 3099 3100 3101 3102 3103 3104 3104 3104 3105 3108 3113 3117 3120 3122 3124 3125 3127 3128 3129 3131 3132 3133 3134 3134 3135 3137 3138 3140 3141 3142 3143 3144 3144 3145 3146 3146 3146 3146 3145 3146 3146 3146 3146 3147 3147 3148 3148 3148 3149 3149 3150 3151 3151 3152 3152 3153 3154 3154 3155 3156 3156 3157 3158 3159 3159 3160 3161 3161 3161 3162 3162 3163 3163 3164 3164 3164
3084 3085 3086 3088 3090 3091 3093 3094 3096 3098 3099 3100 3102 3103 3104 3104 3105 3107 3110 3114 3117 3119 3121 3123 3125 3127 3128 3129 3130 3131 3132 3133 3134 3135 3136 3137 3139 3140 3141 3142 3143 3144 3145 3145 3145 3145 3145 3145 3145 3146 3146 3146 3147 3148 3148 3148 3148 3149 3149 3150 3150 3151 3152 3153 3153 3154 3155 3155 3156 3156 3157 3158 3158 3159 3160 3160 3161 3161 3162 3162 3163 3163 3164 3164 3165
3083 3085 3085 3087 3089 3090 3091 3093 3095 3096 3097 3098 3100 3101 3102 3102 3105 3109 3113 3116 3118 3118 3120 3122 3124 3126 3127 3128 3129 3130 3131 3132 3133 3134 3135 3136 3137 3139 3140 3141 3142 3143 3143 3144 3144 3144 3144 3145 3146 3146 3146 3147 3147 3148 3148 3149 3149 3149 3149 3150 3150 3151 3152 3152 3153 3154 3154 3155 3156 3156 3157 3157 3158 3159 3160 3161 3161 3161 3162 3162 3163 3163 3163 3164 3165
3082 3083 3084 3085 3086 3087 3089 3091 3094 3096 3096 3097 3097 3098 3099 3102 3107 3111 3114 3115 3117 3118 3119 3120 3122 3124 3126 3127 3128 3129 3130 3131 3132 3133 3134 3135 3136 3138 3139 3140 3141 3142 3142 3143 3144 3144 3144 3145 3145 3146 3147 3147 3147 3147 3148 3149 3149 3149 3149 3150 3150 3151 3152 3152 3153 3154 3154 3155 3155 3156 3156 3157 3158 3159 3159 3160 3161 3162 3162 3163 3163 3163 3164 3164 3165
3081 3082 3083 3085 3085 3086 3087 3090 3092 3094 3095 3095 3096 3096 3099 3103 3108 3110 3110 3112 3115 3117 3118 3119 3120 3122 3124 3126 3128 3129 3130 3130 3131 3132 3133 3134 3135 3137 3138 3139 3140 3141 3141 3142 3143 3144 3144 3145 3145 3146 3147 3147 3147 3147 3148 3148 3149 3149 3149 3150 3150 3151 3152 3153 3153 3154 3155 3155 3156 3156 3156 3157 3158 3158 3159 3160 3161 3162 3162 3163 3163 3164 3164 3165 3165
3080 3081 3083 3084 3085 3087 3087 3089 3090 3091 3093 3094 3095 3097 3099 3103 3105 3107 3109 3112 3114 3116 3117 3118 3119 3121 3123 3124 3126 3127 3128 3129 3130 3131 3132 3133 3134 3136 3137 3138 3138 3139 3140 3141 3143 3143 3144 3144 3145 3146 3146 3147 3146 3147 3147 3148 3148 3149 3149 3150 3150 3151 3152 3152 3153 3154 3154 3155 3156 3156 3157 3157 3158 3158 3159 3160 3160 3161 3162 3163 3163 3164 3164 3164 3165
3079 3080 3082 3083 3084 3086 3087 3088 3089 3089 3090 3092 3094 3095 3098 3101 3103 3105 3108 3111 3113 3114 3115 3117 3118 3119 3121 3122 3123 3125 3126 3127 3128 3129 3131 3132 3133 3134 3135 3136 3137 3138 3139 3141 3142 3143 3143 3144 3145 3145 3146 3147 3147 3147 3147 3148 3148 3149 3149 3150 3150 3150 3151 3152 3153 3153 3154 3155 3155 3156 3157 3157 3158 3158 3159 3159 3160 3160 3161 3162 3162 3163 3163 3163 3164
3080 3081 3082 3083 3084 3085 3086 3088 3088 3088 3089 3090 3092 3094 3097 3099 3101 3104 3106 3108 3109 3111 3113 3115 3117 3117 3119 3120 3121 3122 3123 3125 3126 3128 3129 3130 3131 3133 3134 3135 3136 3137 3139 3140 3141 3142 3142 3143 3144 3145 3146 3147 3147 3147 3147 3147 3148 3148 3149 3149 3150 3150 3150 3151 3152 3152 3153 3154 3155 3155 3156 3157 3157 3158 3158 3159 3160 3160 3160 3161 3161 3162 3162 3162 3163
3080 3080 3081 3082 3082 3084 3085 3086 3086 3087 3088 3088 3090 3093 3095 3097 3099 3101 3103 3104 3105 3107 3111 3114 3115 3115 3116 3117 3118 3119 3121 3122 3124 3126 3128 3129 3130 3131 3133 3134 3135 3136 3137 3139 3140 3141 3141 3143 3144 3144 3145 3146 3146 3146 3147 3147 3148 3148 3149 3149 3150 3150 3150 3151 3151 3152 3152 3153 3154 3154 3155 3155 3156 3157 3157 3158 3159 3160 3160 3160 3160 3160 3161 3161 3162
3079 3080 3080 3081 3081 3081 3083 3083 3084 3085 3086 3086 3088 3091 3093 3094 3096 3098 3101 3102 3102 3105 3109 3111 3112 3112 3114 3114 3115 3116 3118 3120 3121 3123 3125 3127 3128 3130 3131 3132 3133 3134 3136 3137 3139 3140 3140 3141 3142 3143 3144 3145 3146 3146 3146 3147 3147 3148 3148 3149 3149 3149 3150 3150 3150 3151 3151 3151 3152 3153 3154 3154 3154 3155 3156 3156 3157 3158 3158 3159 3159 3159 3159 3160 3160
3079 3079 3080 3080 3080 3080 3081 3083 3084 3085 3085 3086 3087 3089 3091 3092 3094 3096 3099 3099 3100 3104 3107 3108 3108 3109 3110 3111 3112 3113 3115 3116 3117 3120 3121 3123 3125 3127 3129 3130 3131 3133 3135 3137 3138 3139 3139 3140 3141 3142 3143 3144 3145 3145 3145 3146 3146 3147 3147 3148 3148 3148 3149 3149 3149 3150 3150 3150 3151 3151 3152 3152 3153 3153 3154 3154 3155 3155 3156 3156 3157 3157 3158 3158 3158
3078 3079 3080 3080 3080 3080 3082 3083 3084 3085 3085 3086 3087 3088 3090 3091 3092 3095 3097 3097 3098 3101 3104 3105 3105 3106 3107 3108 3109 3111 3112 3113 3115 3116 3118 3120 3122 3124 3126 3128 3130 3132 3134 3136 3137 3138 3138 3139 3140 3140 3141 3142 3143 3144 3145 3145 3145 3145 3146 3146 3147 3147 3148 3148 3148 3149 3149 3149 3149 3150 3150 3151 3151 3151 3152 3152 3152 3153 3153 3153 3154 3154 3155 3156 3156
3077 3078 3080 3080 3081 3082 3082 3083 3084 3084 3085 3086 3087 3088 3089 3090 3091 3094 3096 3096 3096 3098 3100 3101 3102 3103 3104 3105 3107 3109 3110 3111 3112 3113 3115 3118 3120 3121 3122 3125 3128 3130 3132 3134 3136 3136 3137 3138 3139 3140 3140 3141 3142 3143 3143 3144 3144 3144 3144 3145 3145 3146 3146 3147 3147 3147 3148 3148 3148 3148 3149 3149 3149 3149 3149 3150 3150 3150 3151 3151 3152 3152 3152 3153 3154
3077 3079 3081 3081 3082 3083 3083 3084 3084 3084 3085 3085 3086 3087 3088 3089 3091 3093 3094 3095 3096 3097 3098 3099 3100 3101 3101 3103 3105 3107 3108 3108 3109 3110 3112 3113 3115 3117 3120 3122 3125 3128 3130 3132 3133 3134 3135 3137 3138 3139 3139 3140 3141 3141 3142 3142 3142 3142 3143 3143 3143 3144 3144 3145 3145 3145 3146 3146 3146 3147 3147 3147 3147 3147 3147 3147 3148 3148 3149 3149 3150 3150 3151 3151 3152
3078 3080 3081 3082 3082 3083 3083 3084 3084 3084 3085 3085 3086 3087 3088 3089 3091 3092 3093 3095 3096 3096 3097 3098 3099 3099 3100 3102 3104 3105 3106 3107 3108 3109 3110 3110 3112 3114 3117 3120 3123 3125 3127 3129 3131 3132 3133 3134 3135 3136 3137 3138 3139 3139 3140 3140 3140 3140 3141 3141 3141 3142 3142 3143 3143 3143 3144 3144 3145 3145 3145 3145 3145 3145 3145 3145 3145 3145 3146 3147 3148 3148 3149 3149 3150
3078 3079 3081 3082 3082 3083 3083 3083 3084 3084 3085 3085 3086 3087 3089 3090 3091 3092 3093 3094 3096 3097 3097 3098 3098 3099 3100 3102 3103 3104 3106 3107 3107 3108 3109 3109 3111 3113 3115 3118 3120 3122 3124 3126 3127 3128 3130 3131 3132 3134 3135 3135 3136 3136 3137 3138 3138 3138 3138 3139 3139 3139 3140 3140 3141 3141 3142 3142 3143 3143 3143 3143 3143 3143 3143 3143 3143 3143 3143 3144 3144 3145 3146 3146 3147
3077 3079 3080 3081 3082 3083 3083 3083 3084 3084 3085 3086 3087 3087 3089 3090 3091 3092 3093 3094 3095 3097 3097 3098 3099 3099 3100 3101 3102 3103 3104 3105 3106 3107 3109 3110 3112 3114 3115 3117 3119 3121 3122 3124 3125 3126 3127 3128 3129 3131 3132 3132 3133 3134 3134 3135 3135 3135 3136 3136 3136 3137 3138 3138 3139 3139 3139 3140 3140 3140 3140 3141 3141 3141 3141 3141 3141 3141 3141 3141 3141 3142 3143 3144 3144
3076 3078 3079 3080 3081 3083 3083 3084 3084 3084 3085 3086 3087 3087 3088 3090 3091 3092 3093 3094 3095 3096 3097 3098 3099 3100 3100 3101 3102 3103 3104 3104 3106 3107 3109 3110 3111 3112 3114 3116 3117 3119 3120 3121 3122 3123 3124 3125 3127 3128 3129 3130 3131 3131 3132 3132 3132 3133 3133 3134 3134 3135 3135 3136 3136 3137 3137 3137 3137 3137 3137 3137 3137 3138 3138 3138 3138 3138 3138 3138 3138 3139 3140 3140 3141
3075 3076 3077 3079 3080 3082 3083 3083 3084 3084 3085 3086 3087 3088 3089 3090 3091 3092 3093 3094 3095 3096 3097 3098 3099 3100 3100 3101 3101 3102 3103 3104 3105 3106 3108 3109 3110 3111 3112 3114 3115 3116 3118 3119 3119 3120 3121 3123 3125 3126 3127 3128 3129 3129 3129 3130 3130 3131 3131 3131 3132 3132 3133 3133 3134 3134 3134 3134 3134 3134 3134 3134 3134 3134 3134 3134 3134 3134 3134 3135 3135 3136 3136 3137 3138
3074 3075 3076 3078 3079 3081 3082 3083 3084 3084 3085 3085 3086 3087 3089 3090 3091 3092 3093 3093 3094 3095 3096 3097 3098 3099 3100 3100 3100 3101 3102 3103 3104 3105 3106 3108 3109 3109 3110 3112 3113 3114 3116 3116 3117 3118 3120 3122 3123 3123 3124 3125 3126 3127 3127 3128 3128 3127 3128 3128 3128 3129 3130 3130 3131 3131 3131 3131 3131 3132 3132 3132 3132 3132 3131 3131 3131 3131 3131 3132 3132 3133 3133 3134 3135
3073 3074 3076 3077 3078 3080 3081 3082 3083 3084 3085 3085 3086 3087 3088 3089 3090 3091 3092 3093 3093 3094 3095 3096 3097 3098 3099 3100 3100 3101 3101 3102 3103 3104 3105 3106 3107 3108 3109 3110 3111 3113 3114 3114 3116 3118 3119 3119 3119 3119 3121 3122 3123 3123 3124 3124 3124 3124 3124 3124 3125 3126 3126 3127 3128 3128 3128 3128 3129 3129 3129 3129 3129 3129 3129 3129 3128 3128 3128 3129 3129 3130 3130 3131 3132
3073 3074 3075 3076 3078 3079 3080 3082 3083 3084 3085 3085 3086 3086 3087 3088 3089 3090 3091 3092 3092 3093 3094 3095 3096 3097 3098 3099 3100 3100 3101 3101 3102 3103 3104 3105 3106 3107 3107 3108 3109 3110 3112 3113 3114 3116 3117 3116 3115 3116 3118 3120 3120 3120 3120 3121 3121 3121 3121 3121 3122 3122 3123 3124 3124 3124 3125 3125 3125 3126 3126 3126 3126 3126 3125 3125 3125 3125 3126 3126 3126 3127 3127 3128 3129
3073 3074 3075 3076 3078 3079 3080 3081 3082 3083 3084 3084 3085 3085 3086 3086 3087 3088 3089 3090 3091 3091 3092 3093 3094 3095 3096 3097 3098 3098 3099 3099 3101 3102 3102 3103 3103 3104 3105 3106 3106 3107 3109 3111 3112 3114 3114 3114 3113 3114 3117 3117 3117 3117 3117 3117 3118 3118 3118 3118 3119 3119 3120 3121 3121 3121 3121 3122 3122 3123 3123 3123 3122 3122 3122 3122 3122 3122 3123 3123 3123 3124 3124 3125 3125
3074 3075 3076 3077 3078 3079 3080 3081 3082 3083 3083 3083 3084 3085 3085 3086 3086 3086 3087 3088 3089 3090 3091 3092 3093 3094 3095 3096 3096 3097 3097 3098 3099 3100 3100 3100 3100 3102 3103 3104 3104 3105 3107 3108 3110 3111 3111 3111 3111 3112 3114 3114 3114 3115 3115 3115 3115 3115 3115 3116 3116 3116 3117 3117 3117 3117 3118 3118 3119 3119 3119 3119 3119 3119 3119 3119 3119 3119 3119 3120 3120 3121 3121 3121 3121
3074 3075 3076 3077 3078 3078 3079 3080 3081 3082 3082 3082 3083 3084 3085 3085 3086 3086 3086 3087 3088 3090 3090 3091 3091 3093 3094 3094 3095 3095 3095 3096 3097 3098 3098 3098 3099 3100 3101 3103 3103 3104 3104 3105 3106 3107 3108 3108 3109 3109 3110 3111 3111 3112 3112 3112 3112 3112 3112 3113 3113 3113 3113 3113 3114 3115 3115 3115 3115 3115 3115 3115 3115 3115 3115 3115 3116 3116 3116 3116 3117 3117 3117 3117 3118
3075 3075 3076 3076 3077 3077 3078 3079 3080 3081 3081 3082 3082 3083 3084 3084 3085 3085 3086 3086 3087 3089 3089 3090 3091 3091 3092 3093 3093 3093 3094 3094 3095 3096 3096 3097 3098 3099 3100 3101 3102 3102 3103 3103 3104 3105 3105 3106 3106 3106 3107 3107 3108 3108 3108 3109 3109 3109 3109 3109 3110 3110 3110 3110 3110 3111 3112 3112 3112 3111 3111 3111 3111 3111 3111 3111 3111 3112 3112 3112 3112 3113 3113 3114 3115
3075 3076 3076 3076 3076 3077 3077 3078 3079 3080 3080 3081 3082 3082 3083 3083 3083 3084 3084 3085 3086 3087 3088 3089 3090 3091 3091 3091 3091 3092 3092 3093 3093 3094 3094 3095 3096 3097 3098 3099 3100 3100 3101 3101 3102 3102 3103 3103 3103 3103 3103 3103 3104 3104 3104 3104 3104 3105 3105 3105 3106 3106 3106 3106 3107 3107 3108 3108 3108 3107 3107 3107 3107 3107 3107 3107 3107 3107 3108 3108 3108 3109 3109 3110 3111
3075 3075 3076 3076 3076 3077 3077 3078 3079 3079 3080 3080 3081 3082 3082 3082 3083 3083 3084 3084 3085 3086 3087 3088 3089 3089 3090 3090 3090 3091 3091 3091 3092 3092 3093 3093 3094 3094 3095 3096 3096 3097 3098 3098 3099 3099 3099 3100 3100 3100 3100 3100 3099 3099 3099 3099 3099 3100 3100 3100 3100 3101 3101 3101 3102 3102 3102 3103 3103 3103 3103 3103 3103 3103 3102 3102 3102 3102 3102 3103 3103 3104 3105 3106 3106
3074 3074 3075 3076 3076 3077 3078 3078 3078 3079 3079 3080 3080 3081 3081 3082 3082 3083 3083 3083 3084 3084 3085 3085 3086 3087 3087 3088 3088 3089 3089 3089 3090 3090 3090 3091 3091 3091 3091 3092 3093 3093 3094 3094 3095 3095 3095 3095 3096 3095 3096 3095 3095 3094 3094 3094 3094 3094 3094 3094 3094 3095 3095 3095 3095 3096 3096 3096 3097 3097 3097 3098 3098 3098 3098 3097 3097 3097 3097 3097 3098 3099 3100 3101 3101
3073 3073 3074 3075 3076 3077 3077 3078 3078 3078 3079 3079 3079 3080 3080 3081 3081 3081 3082 3082 3082 3083 3083 3083 3084 3084 3084 3085 3085 3085 3086 3086 3086 3087 3087 3087 3088 3088 3088 3088 3089 3089 3090 3090 3090 3090 3090 3091 3091 3090 3090 3091 3091 3090 3089 3089 3089 3089 3089 3089 3089 3089 3089 3089 3089 3089 3090 3090 3090 3091 3091 3092 3092 3093 3092 3092 3092 3092 3091 3091 3092 3093 3094 3095 3096
3071 3072 3073 3073 3074 3075 3075 3076 3076 3077 3077 3077 3078 3078 3078 3078 3079 3079 3079 3079 3080 3080 3080 3081 3081 3081 3082 3082 3082 3082 3082 3082 3082 3082 3083 3083 3083 3084 3084 3084 3085 3085 3085 3086 3086 3085 3085 3085 3085 3085 3085 3086 3086 3085 3084 3084 3084 3084 3084 3084 3084 3084 3083 3083 3083 3083 3084 3084 3084 3084 3085 3085 3086 3087 3087 3088 3088 3087 3086 3086 3087 3087 3088 3089 3090
3069 3070 3071 3071 3072 3073 3073 3074 3074 3074 3075 3075 3075 3076 3076 3076 3076 3076 3076 3076 3076 3077 3077 3078 3078 3078 3078 3078 3078 3078 3078 3078 3078 3078 3078 3079 3079 3079 3080 3079 3079 3079 3079 3080 3080 3080 3079 3079 3079 3079 3079 3079 3079 3079 3078 3078 3077 3077 3077 3077 3078 3078 3077 3077 3077 3077 3077 3078 3078 3079 3080 3080 3080 3081 3081 3081 3081 3080 3080 3080 3081 3082 3082 3083 3083
3068 3069 3069 3070 3070 3071 3071 3071 3072 3072 3072 3073 3073 3073 3073 3073 3073 3073 3073 3073 3073 3074 3074 3074 3074 3074 3074 3074 3074 3074 3075 3075 3075 3075 3075 3075 3075 3075 3075 3075 3074 3073 3073 3073 3073 3073 3073 3073 3073 3072 3072 3071 3071 3071 3071 3071 3070 3070 3070 3070 3070 3070 3070 3070 3070 3070 3070 3071 3072 3073 3074 3075 3076 3076 3075 3075 3075 3074 3074 3075 3076 3077 3077 3077 3077
3066 3067 3068 3068 3068 3068 3068 3069 3069 3069 3069 3070 3070 3070 3070 3070 3070 3070 3070 3070 3070 3071 3071 3071 3070 3070 3070 3070 3070 3071 3071 3071 3072 3072 3072 3071 3071 3071 3071 3071 3070 3070 3069 3069 3068 3068 3068 3068 3068 3068 3067 3066 3065 3064 3064 3064 3063 3063 3063 3063 3063 3063 3063 3063 3063 3063 3064 3065 3066 3067 3068 3069 3071 3071 3071 3071 3071 3070 3070 3070 3071 3072 3073 3073 3072